Simultaneous Nadir Overpasses (SNOs) Predictions

Prediction of SNOs between NOAA-19 and TERRA Satellite Orbit:

Table of predicted SNOs for the next 14.0 days since TLE Epoch: 7/6/2018
Index Date (NOAA-19) Time (NOAA-19) Lat,Lon (NOAA-19) SZA (NOAA-19 ) Date (TERRA) Time (TERRA) Lat,Lon (TERRA) SZA (TERRA ) Distance(km) Time Diff (sec)
1 07/08/2018 19:11:25 -77.20, 88.92 124.76 07/08/2018 19:12:02 -77.20, 88.79 124.76 3.32 37
2 07/08/2018 20:02:25 77.17,-103.70 55.23 07/08/2018 20:01:28 77.18,-103.64 55.22 1.77 57
3 07/11/2018 00:45:01 77.24,-174.59 55.55 07/11/2018 00:45:44 77.25,-174.44 55.58 3.91 43
4 07/11/2018 01:36:00 -77.20, -7.17 124.48 07/11/2018 01:35:13 -77.18, -7.07 124.50 3.25 47
5 07/13/2018 06:18:35 -77.26, -77.98 124.14 07/13/2018 06:19:29 -77.25, -77.88 124.12 2.63 54
6 07/13/2018 07:09:35 77.18, 89.60 55.82 07/13/2018 07:08:56 77.18, 89.50 55.80 2.52 39
7 07/15/2018 11:52:11 77.26, 18.68 56.21 07/15/2018 11:53:12 77.25, 18.68 56.21 0.86 61
8 07/15/2018 12:43:09 -77.22,-173.90 123.81 07/15/2018 12:42:40 -77.23,-173.76 123.81 3.56 29
9 07/17/2018 17:25:44 -77.28, 115.26 123.41 07/17/2018 17:26:57 -77.25, 115.23 123.43 3.90 73
10 07/17/2018 18:16:45 77.21, -77.14 56.55 07/17/2018 18:16:23 77.22, -77.22 56.55 2.60 22
11 07/19/2018 22:59:26 77.53,-149.28 57.16 07/19/2018 23:00:35 77.42,-147.51 57.18 44.42 69
12 07/19/2018 23:50:17 -77.25, 19.32 123.02 07/19/2018 23:50:07 -77.22, 19.33 123.06 4.01 10




NCC Satellite Simultaneous Nadir Overpasses (SNOs) Prediction Service
